Hit Tracker is now ESPN Home Run Tracker! Hit Tracker founder Greg Rybarczyk is now collaborating with the ESPN Stats & Information Group to continue tracking all MLB home runs, and helping baseball fans know "How Far It Really Went!™" Please credit any information on this site to ESPN Stats & Information Group. For more information and analysis on home runs, please contact founder Greg Rybarczyk. E-Mail ESPN Home Run Tracker
Main Page | Ballparks | Park Overlays | Glossary | Highlight Homers | Feedback | Bio | 3 Types of HR's | AAA Home Run Derby Last Updated: July 27, 2015, 11:25 pm PST
Welcome to the ESPN Home Run Tracker! Check out the ESPN MLB Scoreboard throughout the 2015 season! Contact us at grybar@hittrackeronline.com.
Season:
Ballpark detail for Chase Field
Ballpark # of Home Runs HR per game Avg.
True
Distance
Avg.
Speed
Off
Bat
Avg.
Std.
Dist.
Chase Field 94 2.19 401 104.3 397.8

Scatter Plot of Home Runs Chase Field
 Overlay Ballpark:
Without range rings   With range rings

2015 Season Home Runs for Chase Field
Click headers to sort
Date Video Path Hitter Hitter
Team
Pitcher Pitcher
Team
INN Ballpark Type/
Luck
True
Dist.
Speed
Off
Bat
Elev.
Angle
Horiz.
Angle
Apex Impact Due To: Std.
Dist.
#
Parks
Wind Temp. Alt. ^
05/23/15 Video View Rizzo, Anthony CHC Burgos, Enrique ARI 9 Chase Field JE/L 396 100.1 35.2 79.7 129 6 2 5 384 15
05/12/15 Video View Inciarte, Ender ARI Strasburg, Stephen WSH 3 Chase Field PL 385 98.6 35.2 72.8 118 7 3 4 371 22
05/12/15 Video View Trumbo, Mark ARI Strasburg, Stephen WSH 4 Chase Field ND 441 110.6 29.7 113.4 105 5 3 4 431 30
04/10/15 Video View Grandal, Yasmani LAD Anderson, Chase ARI 4 Chase Field PL 440 105.6 31.3 83.9 123 5 2 4 429 28
06/03/15 Video View Pollock, A.J. ARI Foltynewicz, Mike ATL 5 Chase Field PL 402 100.8 31.6 102.2 110 0 1 4 397 28
07/03/15 Video View Blackmon, Charlie COL Anderson, Chase ARI 1 Chase Field PL 398 101.0 32.7 75.4 114 0 2 4 393 28
07/18/15 Video View Pennington, Cliff ARI Peavy, Jake SF 7 Chase Field PL 398 103.2 33.3 67.3 114 0 2 4 392 30
05/08/15 Video View Peralta, David ARI Shields, James SD 6 Chase Field PL 400 102.5 30.3 70.0 97 0 1 3 396 30
05/11/15 Video View Zimmerman, Ryan WSH Collmenter, Josh ARI 1 Chase Field PL 428 104.4 30.5 99.4 113 0 4 3 421 30
05/13/15 Video View Werth, Jayson WSH Hellickson, Jeremy ARI 3 Chase Field PL 440 106.7 28.2 100.7 102 4 3 3 432 30
04/28/15 Video View Trumbo, Mark ARI Kendrick, Kyle COL 5 Chase Field PL 451 108.6 27.5 97.6 105 0 3 3 446 30
04/29/15 Video View Pacheco, Jordan ARI Lyles, Jordan COL 5 Chase Field JE 391 98.5 31.3 102.9 101 0 3 3 385 19
04/07/15 Video View Posey, Buster SF De La Rosa, Rubby ARI 1 Chase Field PL 404 100.9 29.1 102.5 94 3 1 3 398 28
04/07/15 Video View Peralta, David ARI Vogelsong, Ryan SF 3 Chase Field ND 437 109.4 27.7 71.8 96 2 1 3 432 30
04/12/15 Video View Guerrero, Alex LAD Perez, Oliver ARI 9 Chase Field PL 416 103.1 29.4 104.2 99 5 2 3 407 30
05/22/15 Video View Ahmed, Nick ARI Lester, Jon CHC 5 Chase Field PL 388 102.9 30.9 118.8 93 -2 0 3 387 30
05/23/15 Video View Gosewisch, Tuffy ARI Arrieta, Jake CHC 6 Chase Field JE 366 97.8 33.9 118.1 100 1 1 3 361 29
06/03/15 Video View Freeman, Freddie ATL De La Rosa, Rubby ARI 2 Chase Field ND 420 108.0 29.6 64.6 98 0 1 3 415 30
06/05/15 Video View Cuddyer, Michael NYM Hellickson, Jeremy ARI 2 Chase Field PL 381 99.9 31.1 114.2 93 0 1 3 377 30
06/07/15 Video View Granderson, Curtis NYM Collmenter, Josh ARI 1 Chase Field PL 385 99.1 32.9 72.9 108 0 1 3 380 27
06/07/15 Video View Granderson, Curtis NYM Collmenter, Josh ARI 5 Chase Field ND 408 106.1 30.0 63.0 95 0 1 3 404 30
06/17/15 Video View Goldschmidt, Paul ARI Santiago, Hector LAA 1 Chase Field PL 419 104.9 28.0 76.1 94 0 1 3 416 29
06/17/15 Video View Castillo, Welington ARI Santiago, Hector LAA 4 Chase Field PL 392 103.0 29.2 115.6 86 0 1 3 389 30
06/29/15 Video View Pederson, Joc LAD Webster, Allen ARI 4 Chase Field ND 461 113.4 26.3 75.3 98 0 1 3 457 30
06/29/15 Video View Ahmed, Nick ARI Peralta, Joel LAD 5 Chase Field PL 385 98.5 32.5 105.2 106 0 2 3 380 23
07/05/15 Video View Tulowitzki, Troy COL De La Rosa, Rubby ARI 1 Chase Field PL 426 105.4 28.0 101.5 98 0 1 3 423 30
07/17/15 Video View Owings, Chris ARI Cain, Matt SF 4 Chase Field PL 423 103.9 28.6 99.2 101 0 2 3 419 30
07/18/15 Video View Peralta, David ARI Peavy, Jake SF 6 Chase Field JE 371 96.9 31.6 110.4 93 0 1 3 367 18
07/19/15 Video View Maxwell, Justin SF Corbin, Patrick ARI 2 Chase Field PL 383 98.4 32.7 73.4 106 0 1 3 378 24
07/24/15 Video View Braun, Ryan MIL Corbin, Patrick ARI 6 Chase Field PL 389 100.2 32.3 70.9 105 0 1 3 384 29
05/08/15 Video View Venable, Will SD Hellickson, Jeremy ARI 2 Chase Field ND 418 110.6 23.5 71.6 70 0 0 2 417 30
05/08/15 Video View Myers, Wil SD Hellickson, Jeremy ARI 5 Chase Field ND 400 107.4 27.3 120.6 78 -1 -1 2 399 30
05/08/15 Video View Goldschmidt, Paul ARI Shields, James SD 6 Chase Field ND 443 110.8 24.6 102.1 84 0 1 2 441 30
05/10/15 Video View Hill, Aaron ARI Cashner, Andrew SD 2 Chase Field JE 375 99.1 28.5 111.9 79 0 1 2 372 20
05/10/15 Video View Pollock, A.J. ARI Cashner, Andrew SD 3 Chase Field JE 376 100.7 26.1 110.2 70 0 1 2 374 18
05/11/15 Video View Span, Denard WSH Collmenter, Josh ARI 1 Chase Field ND 419 109.1 25.2 69.5 76 0 2 2 416 30
05/11/15 Video View Pacheco, Jordan ARI Scherzer, Max WSH 6 Chase Field PL 362 97.6 31.7 121.3 85 0 2 2 357 29
04/27/15 Video View Morneau, Justin COL Anderson, Chase ARI 1 Chase Field JE/L 382 97.1 30.2 75.2 90 3 1 2 375 10
04/28/15 Video View Peralta, David ARI Kendrick, Kyle COL 4 Chase Field ND 411 107.6 26.6 66.0 79 0 2 2 408 30
05/07/15 Video View Goldschmidt, Paul ARI Despaigne, Odrisamer SD 3 Chase Field PL 363 99.0 29.6 121.8 77 -1 1 2 361 29
04/07/15 Video View Crawford, Brandon SF De La Rosa, Rubby ARI 6 Chase Field PL 417 102.5 28.3 99.3 96 3 1 2 411 28
04/10/15 Video View Goldschmidt, Paul ARI Anderson, Brett LAD 3 Chase Field JE 400 100.8 26.9 79.6 83 1 1 2 397 22
04/12/15 Video View Pederson, Joc LAD Schugel, A.J. ARI 6 Chase Field PL 444 109.2 24.6 99.3 85 3 1 2 439 30
05/24/15 Video View Montero, Miguel CHC Hellickson, Jeremy ARI 2 Chase Field JE 376 101.1 27.0 114.1 72 0 1 2 374 28
06/01/15 Video View Freeman, Freddie ATL Bradley, Archie ARI 5 Chase Field ND 451 108.5 26.7 82.6 98 0 3 2 445 30
06/02/15 Video View Pollock, A.J. ARI Cunniff, Brandon ATL 7 Chase Field PL 405 103.7 25.1 77.8 75 1 2 2 402 25
06/03/15 Video View Freeman, Freddie ATL De La Rosa, Rubby ARI 4 Chase Field JE 373 99.4 28.4 113.7 77 0 1 2 370 21
06/04/15 Video View Goldschmidt, Paul ARI Harvey, Matt NYM 6 Chase Field PL 432 106.5 26.0 80.6 89 1 1 2 428 30
06/07/15 Video View Flores, Wilmer NYM Collmenter, Josh ARI 6 Chase Field JE 394 99.7 29.0 102.5 91 0 0 2 392 26
06/20/15 Video View Norris, Derek SD Ray, Robbie ARI 3 Chase Field PL 410 104.2 27.9 106.6 89 0 1 2 407 30
06/29/15 Video View Grandal, Yasmani LAD Webster, Allen ARI 4 Chase Field JE 376 98.2 29.1 108.9 83 0 1 2 373 19
06/30/15 Video View Grandal, Yasmani LAD De La Rosa, Rubby ARI 2 Chase Field PL 381 101.7 27.2 114.0 74 0 1 2 378 29
07/01/15 Video View Hill, Aaron ARI Anderson, Brett LAD 6 Chase Field PL 406 105.1 25.1 105.1 75 0 1 2 404 30
07/02/15 Video View Pollock, A.J. ARI Rusin, Chris COL 6 Chase Field PL 429 105.8 26.5 99.3 91 0 1 2 426 30
07/05/15 Video View Gonzalez, Carlos COL De La Rosa, Rubby ARI 6 Chase Field JE 384 100.2 27.0 106.5 77 0 1 2 383 23
07/20/15 Video View Dietrich, Derek MIA De La Rosa, Rubby ARI 7 Chase Field JE/L 369 98.0 28.1 69.2 76 0 1 2 367 16
07/23/15 Video View Braun, Ryan MIL Leone, Dominic ARI 9 Chase Field PL 430 108.5 24.7 102.7 81 0 0 2 428 30
05/08/15 Video View Owings, Chris ARI Shields, James SD 2 Chase Field PL 406 103.2 25.4 99.8 80 -1 0 1 406 30
05/08/15 Video View Pollock, A.J. ARI Shields, James SD 5 Chase Field JE 410 109.0 21.0 100.0 61 0 0 1 409 23
05/12/15 Video View Harper, Bryce WSH de la Rosa, Rubby ARI 6 Chase Field JE 396 101.2 26.6 76.1 78 3 1 1 391 26
05/12/15 Video View Trumbo, Mark ARI Solis, Sammy WSH 6 Chase Field PL 421 116.2 19.9 105.3 56 0 1 1 420 30
05/13/15 Video View Moore, Tyler WSH Delgado, Randall ARI 6 Chase Field PL 376 105.9 25.5 127.3 63 0 1 1 374 30
05/13/15 Video View Taylor, Michael WSH Reed, Addison ARI 9 Chase Field JE 444 111.0 21.3 92.8 72 0 0 1 444 28
04/07/15 Video View Lamb, Jake ARI Vogelsong, Ryan SF 5 Chase Field PL 420 108.9 24.1 74.4 74 0 0 1 418 30
04/11/15 Video View Goldschmidt, Paul ARI Kershaw, Clayton LAD 7 Chase Field PL 411 107.7 22.8 102.6 67 0 1 1 409 30
04/12/15 Video View Puig, Yasiel LAD Collmenter, Josh ARI 5 Chase Field JE 389 105.1 23.2 106.3 63 0 0 1 388 23
04/22/15 Video View Owings, Chris ARI Gallardo, Yovani TEX 4 Chase Field PL 406 102.4 26.6 101.5 84 2 1 1 403 28
04/22/15 Video View Beltre, Adrian TEX Chafin, Andrew ARI 9 Chase Field JE 380 106.9 23.5 117.4 59 0 1 1 379 29
05/22/15 Video View Fowler, Dexter CHC Collmenter, Josh ARI 3 Chase Field JE 376 106.5 22.5 66.4 56 0 1 1 374 19
05/22/15 Video View Goldschmidt, Paul ARI Rondon, Hector CHC 10 Chase Field PL 407 105.7 23.9 102.6 71 0 0 1 406 30
05/24/15 Video View Goldschmidt, Paul ARI Hammel, Jason CHC 3 Chase Field JE 433 107.9 22.9 85.6 76 0 0 1 432 26
06/03/15 Video View Pierzynski, A.J. ATL Ziegler, Brad ARI 9 Chase Field JE 401 103.3 24.2 79.6 72 0 0 1 400 22
06/04/15 Video View Mayberry Jr., John NYM Hudson, Daniel ARI 9 Chase Field JE 400 110.6 20.3 103.2 55 0 0 1 400 23
06/06/15 Video View Lagares, Juan NYM Anderson, Chase ARI 2 Chase Field JE/L 367 99.6 26.7 65.9 68 0 2 1 364 16
06/06/15 Video View Castillo, Welington ARI Colon, Bartolo NYM 7 Chase Field JE 376 106.2 24.0 120.8 59 0 1 1 374 30
06/07/15 Video View Campbell, Eric NYM Collmenter, Josh ARI 2 Chase Field PL 408 106.3 24.8 106.5 74 0 0 1 407 30
06/18/15 Video View Featherston, Taylor LAA Webster, Allen ARI 3 Chase Field JE 402 107.4 22.0 102.8 62 0 0 1 401 27
06/18/15 Video View Giavotella, Johnny LAA Webster, Allen ARI 3 Chase Field JE 383 102.5 24.9 107.8 67 0 1 1 382 21
06/20/15 Video View Upton Jr., Melvin SD Reed, Addison ARI 9 Chase Field JE 400 103.9 24.4 102.9 71 0 1 1 398 28
06/29/15 Video View Ethier, Andre LAD Webster, Allen ARI 4 Chase Field PL 380 110.9 22.3 53.4 54 0 1 1 377 30
06/29/15 Video View Tomas, Yasmany ARI Garcia, Yimi LAD 6 Chase Field JE 374 107.5 21.9 113.9 53 0 0 1 373 16
06/30/15 Video View Ahmed, Nick ARI Frias, Carlos LAD 4 Chase Field JE 392 102.1 25.3 75.9 73 0 1 1 390 24
06/30/15 Video View Kendrick, Howard LAD Hernandez, David ARI 10 Chase Field JE 382 105.1 23.8 67.6 62 0 1 1 380 24
07/01/15 Video View Peralta, David ARI Jansen, Kenley LAD 9 Chase Field JE 379 104.3 23.3 70.7 60 0 0 1 378 18
07/05/15 Video View Tomas, Yasmany ARI De La Rosa, Jorge COL 2 Chase Field JE 391 100.6 26.5 77.2 79 0 0 1 390 22
07/17/15 Video View Pence, Hunter SF Burgos, Enrique ARI 7 Chase Field JE 392 104.8 23.2 75.5 64 0 1 1 391 24
07/21/15 Video View Morse, Michael MIA Hellickson, Jeremy ARI 7 Chase Field JE 385 106.6 22.4 70.9 58 0 0 1 384 23
07/23/15 Video View Tomas, Yasmany ARI Fiers, Mike MIL 2 Chase Field JE 394 102.4 24.9 77.2 72 0 1 1 392 21
05/09/15 Video View Upton, Justin SD Delgado, Randall ARI 12 Chase Field JE 401 109.4 21.2 104.0 58 0 0 0 401 27
05/07/15 Video View Trumbo, Mark ARI Despaigne, Odrisamer SD 1 Chase Field JE 404 108.1 26.4 119.1 75 0 0 0 404 0
04/08/15 Video View McGehee, Casey SF Marshall, Evan ARI 9 Chase Field JE 375 106.2 22.5 112.8 56 0 0 0 374 18
04/21/15 Video View Fielder, Prince TEX Hudson, Daniel ARI 8 Chase Field PL 394 100.8 28.8 74.1 89 0 0 0 394 0
05/24/15 Video View Coghlan, Chris CHC Hellickson, Jeremy ARI 5 Chase Field PL 394 104.9 26.0 67.3 73 0 -1 0 394 30
06/04/15 Video View Saltalamacchia, Jarrod ARI Harvey, Matt NYM 2 Chase Field JE/L 397 111.6 19.5 77.3 51 0 0 0 396 17


About HitTracker | Contact Us
© 2006-2015 HitTrackerOnline